Regional Weather Roundup
Issued by NWS Goodland, KS

Home | Current Version | Previous Version | Text Only | Print | Product List | Glossary On
Versions: 1 2 3 4 5 6 7 8 9 10 11 12 13 14 15 16 17 18 19 20 21 22 23 24 25 26 27 28 29 30 31 32 33 34 35 36 37 38 39 40 41 42 43 44 45 46 47 48 49 50
000
ASUS43 KGLD 240959
RWRGLD

GOODLAND FORECAST AREA HOURLY WEATHER ROUNDUP
NATIONAL WEATHER SERVICE GOODLAND KS
300 AM MST TUE JAN 24 2017

...OFFICIAL OBSERVATIONS...

CITY           SKY/WX    TMP DP  RH WIND       PRES   REMARKS
GOODLAND KS    CLOUDY    29  27  92 NW3       29.42F
HILL CITY KS   PTCLDY    32  30  92 E8        29.50S
IMPERIAL NEB   CLOUDY    32  29  88 E9        29.50S
MCCOOK NEB     CLOUDY    32  31  96 E15       29.50F FOG
AKRON CO       CLOUDY    29  26  89 N15       29.46F WCI  18
BURLINGTON CO  CLOUDY    31  28  89 W9        29.43F
LIMON CO       CLOUDY    30  27  88 W17G23    29.46F WCI  18
$$

...UNOFFICIAL OBSERVATIONS...

CITY           SKY/WX    TMP DP  RH WIND       PRES   REMARKS
LENORA KS        N/A     30  32 100 E7          N/A
NORTON KS      MOCLDY    34  28  80 E14       29.49
SHARON SPRINGS   N/A     31  27  85 W6          N/A
TRENTON NEB      N/A     31  32 100 E8          N/A
KIT CARSON CO    N/A     32  28  85 CALM        N/A
$$




USA.gov is the U.S. government's official web portal to all federal, state and local government web resources and services.